カタログに戻る

STARLINK-36866

運用中通信SSO
NORAD 67895·PAYLOAD·🇺🇸 United States

打ち上げ Feb 21, 2026 から Vandenberg Space Force Base

Loading…

次のパス (今後24時間)

TLE

最新Source: CelesTrak SupGP

元期: Sep 14, 2026, 23:02 UTC

1 67895C 26035S   26257.96020833 -.00043784  00000+0 -13597-2 0  2575
2 67895  97.2848 189.8609 0001782  94.0055 215.0862 15.33448615    12

AllMySatでSTARLINK-36866をリアルタイム追跡

Download on the App Store